Location: Newark
(41.6500°N, 71.4833°W)
Time: 13:39:14
(UTC+00:00)

Tiros 1 - Pass Details

Date: 20 January 2020
Orbit: 631 x 664 km, 48.4° (Epoch: 24 February)

Event Time Altitude Azimuth Distance (km) Brightness Sun altitude
Rises 01:07:20 0° 297° (WNW) 2,989 11.4 -37.5°
Reaches altitude 10° 01:09:41 10° 296° (WNW) 2,078 10.4 -37.9°
Enters shadow 01:10:34 15° 295° (WNW) 1,743 9.9 -38.1°
